This is the latest recevied weather packets stored in our database for station/object ON6OO-13. If no packets are shown the sender has not sent any weather packets the latest 10 day(s).
| Time | Temp. | Humidity | Pressure | Rain* | Wind** | Luminosity | Snow |
|---|---|---|---|---|---|---|---|
| 1778170406 | 14.44° C | 60% | 1015.5 hPa | 0 mm | - | - | - |
| 1778169494 | 14.44° C | 61% | 1015.9 hPa | 0 mm | - | - | - |
| 1778168582 | 14.44° C | 62% | 1015.9 hPa | 0 mm | - | - | - |
| 1778167670 | 14.44° C | 59% | 1015.9 hPa | 0 mm | - | - | - |
| 1778166758 | 14.44° C | 60% | 1015.9 hPa | 0 mm | - | - | - |
| 1778165846 | 14.44° C | 60% | 1015.5 hPa | 0 mm | - | - | - |
| 1778164934 | 14.44° C | 59% | 1015.9 hPa | 0 mm | - | - | - |
| 1778164022 | 14.44° C | 60% | 1015.9 hPa | 0 mm | - | - | - |
| 1778163110 | 14.44° C | 60% | 1015.9 hPa | 0 mm | - | - | - |
| 1778162198 | 14.44° C | 58% | 1015.9 hPa | 0 mm | - | - | - |
| 1778161286 | 14.44° C | 58% | 1016.2 hPa | 0 mm | - | - | - |
| 1778160374 | 14.44° C | 59% | 1015.9 hPa | 0 mm | - | - | - |
| 1778159462 | 15° C | 60% | 1015.9 hPa | 0 mm | - | - | - |
| 1778158550 | 15° C | 59% | 1015.9 hPa | 0 mm | - | - | - |
| 1778157638 | 15° C | 59% | 1015.9 hPa | 0 mm | - | - | - |
| 1778156726 | 15° C | 59% | 1015.9 hPa | 0 mm | - | - | - |
| 1778155814 | 15° C | 58% | 1015.9 hPa | 0 mm | - | - | - |
| 1778154902 | 14.44° C | 58% | 1015.5 hPa | 0 mm | - | - | - |
| 1778153990 | 13.89° C | 63% | 1016.2 hPa | 0 mm | - | - | - |
| 1778153078 | 13.89° C | 61% | 1015.9 hPa | 0 mm | - | - | - |
| 1778152166 | 14.44° C | 63% | 1015.9 hPa | 0 mm | - | - | - |
| 1778151254 | 14.44° C | 64% | 1015.9 hPa | 0 mm | - | - | - |
| 1778150342 | 13.89° C | 64% | 1015.9 hPa | 0 mm | - | - | - |
| 1778149430 | 13.89° C | 66% | 1016.2 hPa | 0 mm | - | - | - |
| 1778148518 | 13.33° C | 67% | 1016.2 hPa | 0 mm | - | - | - |
* Rain latest hour (hover to see other rain measurements)
** Current wind speed in m/s (hover to see current wind gust speed)